SAS1321 ENAL-ENGM

Flight info

Callsign SAS1321
Flight time 0h 58m
Altitude 33000
Route GIGIR DCT KEMIV DCT BELGU
Aircraft A320/M-SDE3FGHIJ1RWXYZ/ALB1

Departure

Time 2026-05-08 01:34
Airport Ålesund Airport (ENAL)

Arrival

Time 2026-05-08 02:32
Airport Oslo-Gardermoen International Airport (ENGM)
Time Latitude Longitude Altitude Speed Heading
2026-05-08 01:12 62.55856 6.11223 82 ft 0 kts 155°
2026-05-08 01:28 62.55874 6.11206 84 ft 4 kts 168°
2026-05-08 01:28 62.55899 6.11205 83 ft 4 kts 201°
2026-05-08 01:29 62.55919 6.11235 85 ft 4 kts 235°
2026-05-08 01:29 62.55928 6.11267 82 ft 1 kts 242°
2026-05-08 01:31 62.55926 6.11255 85 ft 4 kts 242°
2026-05-08 01:31 62.55905 6.11149 82 ft 12 kts 255°
2026-05-08 01:31 62.55920 6.10934 80 ft 17 kts 284°
2026-05-08 01:31 62.55951 6.10665 74 ft 21 kts 283°
2026-05-08 01:32 62.55908 6.10401 62 ft 17 kts 248°
2026-05-08 01:32 62.55848 6.10096 59 ft 26 kts 244°
2026-05-08 01:32 62.55777 6.09783 50 ft 18 kts 240°
2026-05-08 01:32 62.55706 6.09479 48 ft 27 kts 244°
2026-05-08 01:33 62.55635 6.09173 39 ft 20 kts 235°
2026-05-08 01:33 62.55594 6.09030 41 ft 5 kts 320°
2026-05-08 01:33 62.55613 6.09070 41 ft 6 kts 65°
2026-05-08 01:33 62.55699 6.09470 47 ft 79 kts 66°
2026-05-08 01:34 62.56070 6.11171 112 ft 162 kts 65°
2026-05-08 01:34 62.56611 6.13558 835 ft 188 kts 65°
2026-05-08 01:34 62.57226 6.16302 1705 ft 215 kts 64°
2026-05-08 01:34 62.58022 6.19198 2632 ft 230 kts 60°
2026-05-08 01:35 62.58724 6.22360 3746 ft 237 kts 77°
2026-05-08 01:35 62.58831 6.25942 4877 ft 241 kts 102°
2026-05-08 01:35 62.58536 6.28304 5649 ft 241 kts 118°
2026-05-08 01:35 62.57586 6.31334 6826 ft 240 kts 141°
2026-05-08 01:36 62.56204 6.33293 7998 ft 238 kts 162°
2026-05-08 01:36 62.54592 6.33989 9186 ft 238 kts 181°
2026-05-08 01:36 62.52921 6.34042 10360 ft 243 kts 182°
2026-05-08 01:36 62.51211 6.34102 11412 ft 248 kts 182°
2026-05-08 01:37 62.49467 6.34170 12453 ft 253 kts 183°
2026-05-08 01:37 62.47687 6.34277 13487 ft 260 kts 179°
2026-05-08 01:37 62.45904 6.35361 14411 ft 276 kts 158°
2026-05-08 01:37 62.44329 6.37982 15054 ft 304 kts 135°
2026-05-08 01:38 62.43201 6.42126 15438 ft 335 kts 120°
2026-05-08 01:38 62.42151 6.46819 15841 ft 356 kts 119°
2026-05-08 01:38 62.41065 6.51703 16549 ft 365 kts 119°
2026-05-08 01:38 62.39956 6.56683 17385 ft 371 kts 120°
2026-05-08 01:39 62.38822 6.61722 18227 ft 376 kts 120°
2026-05-08 01:39 62.37660 6.66828 18967 ft 382 kts 120°
2026-05-08 01:39 62.36474 6.71987 19707 ft 387 kts 121°
2026-05-08 01:39 62.35264 6.77219 20466 ft 393 kts 121°
2026-05-08 01:40 62.34035 6.82519 21212 ft 398 kts 121°
2026-05-08 01:40 62.32769 6.87954 21941 ft 404 kts 121°
2026-05-08 01:40 62.31501 6.93389 22653 ft 409 kts 121°
2026-05-08 01:40 62.30214 6.98892 23356 ft 415 kts 122°
2026-05-08 01:41 62.28913 7.04463 23998 ft 420 kts 122°
2026-05-08 01:41 62.27592 7.10113 24574 ft 425 kts 122°
2026-05-08 01:41 62.26261 7.15808 25156 ft 430 kts 122°
2026-05-08 01:41 62.24912 7.21569 25750 ft 434 kts 122°
2026-05-08 01:42 62.23546 7.27381 26255 ft 439 kts 122°
2026-05-08 01:42 62.22151 7.33269 26784 ft 445 kts 122°
2026-05-08 01:42 62.20724 7.39162 27322 ft 448 kts 124°
2026-05-08 01:42 62.19179 7.44987 27799 ft 450 kts 126°
2026-05-08 01:43 62.17535 7.50717 28294 ft 453 kts 128°
2026-05-08 01:43 62.15829 7.56413 28863 ft 457 kts 129°
2026-05-08 01:43 62.14095 7.62121 29391 ft 461 kts 129°
2026-05-08 01:43 62.12343 7.67909 29919 ft 465 kts 129°
2026-05-08 01:44 62.10596 7.73749 30399 ft 469 kts 128°
2026-05-08 01:44 62.08846 7.79666 30835 ft 473 kts 128°
2026-05-08 01:44 62.07089 7.85641 31352 ft 477 kts 128°
2026-05-08 01:44 62.05324 7.91652 31808 ft 480 kts 128°
2026-05-08 01:45 62.03536 7.97709 32215 ft 484 kts 128°
2026-05-08 01:45 62.01743 8.03769 32792 ft 484 kts 128°
2026-05-08 01:45 61.99941 8.09842 33128 ft 484 kts 128°
2026-05-08 01:46 61.96418 8.21695 33208 ft 461 kts 129°
2026-05-08 01:46 61.93013 8.33062 33195 ft 453 kts 129°
2026-05-08 01:47 61.89609 8.44278 33207 ft 447 kts 129°
2026-05-08 01:47 61.87961 8.49712 33202 ft 432 kts 129°
2026-05-08 01:47 61.86362 8.55005 33205 ft 419 kts 129°
2026-05-08 01:48 61.83308 8.65085 33221 ft 395 kts 130°
2026-05-08 01:48 61.81842 8.69891 33212 ft 383 kts 130°
2026-05-08 01:48 61.80413 8.74564 33218 ft 372 kts 130°
2026-05-08 01:48 61.79028 8.79077 33211 ft 360 kts 131°
2026-05-08 01:49 61.76318 8.87833 33228 ft 354 kts 131°
2026-05-08 01:49 61.73620 8.96521 33235 ft 354 kts 131°
2026-05-08 01:50 61.70925 9.05195 33230 ft 353 kts 131°
2026-05-08 01:50 61.68235 9.13825 33241 ft 352 kts 131°
2026-05-08 01:51 61.65549 9.22413 33236 ft 352 kts 131°
2026-05-08 01:51 61.62847 9.31033 33240 ft 355 kts 131°
2026-05-08 01:52 61.60122 9.39683 33242 ft 355 kts 131°
2026-05-08 01:52 61.57408 9.48282 33242 ft 351 kts 131°
2026-05-08 01:53 61.54701 9.56804 33243 ft 350 kts 131°
2026-05-08 01:53 61.51997 9.65288 33245 ft 350 kts 131°
2026-05-08 01:54 61.49287 9.73776 33242 ft 350 kts 131°
2026-05-08 01:54 61.46581 9.82233 33242 ft 350 kts 131°
2026-05-08 01:55 61.43863 9.90670 33235 ft 351 kts 131°
2026-05-08 01:55 61.41120 9.99140 33240 ft 352 kts 131°
2026-05-08 01:56 61.38376 10.07603 33250 ft 352 kts 131°
2026-05-08 01:56 61.35622 10.16059 33248 ft 352 kts 131°
2026-05-08 01:57 61.32820 10.24622 32614 ft 362 kts 131°
2026-05-08 01:57 61.31396 10.28964 32144 ft 364 kts 130°
2026-05-08 01:57 61.29961 10.33338 31688 ft 368 kts 130°
2026-05-08 01:58 61.28508 10.37747 31199 ft 372 kts 130°
2026-05-08 01:58 61.27037 10.42205 30714 ft 376 kts 130°
2026-05-08 01:58 61.25536 10.46688 30214 ft 379 kts 134°
2026-05-08 01:58 61.23755 10.50645 29675 ft 371 kts 147°
2026-05-08 01:59 61.21699 10.53639 29560 ft 353 kts 159°
2026-05-08 01:59 61.19524 10.55677 29422 ft 336 kts 169°
2026-05-08 01:59 61.17264 10.56827 28790 ft 333 kts 181°
2026-05-08 01:59 61.14979 10.57046 28280 ft 326 kts 191°
2026-05-08 02:00 61.12745 10.56454 27780 ft 322 kts 199°
2026-05-08 02:00 61.10538 10.55588 27279 ft 324 kts 198°
2026-05-08 02:00 61.08313 10.54730 26775 ft 327 kts 198°
2026-05-08 02:00 61.06066 10.53869 26252 ft 329 kts 198°
2026-05-08 02:01 61.03804 10.53005 25754 ft 332 kts 197°
2026-05-08 02:01 61.01525 10.52140 25234 ft 334 kts 197°
2026-05-08 02:01 60.99232 10.51274 24707 ft 336 kts 197°
2026-05-08 02:01 60.96928 10.50403 24194 ft 338 kts 197°
2026-05-08 02:02 60.94608 10.49521 23637 ft 340 kts 197°
2026-05-08 02:02 60.92283 10.48639 23039 ft 339 kts 196°
2026-05-08 02:02 60.89966 10.47766 22539 ft 337 kts 196°
2026-05-08 02:02 60.87661 10.46896 22022 ft 336 kts 196°
2026-05-08 02:03 60.85365 10.46030 21521 ft 335 kts 196°
2026-05-08 02:03 60.83078 10.45170 21022 ft 334 kts 196°
2026-05-08 02:03 60.80798 10.44314 20512 ft 332 kts 196°
2026-05-08 02:03 60.78525 10.43461 20011 ft 332 kts 195°
2026-05-08 02:04 60.76252 10.42615 19511 ft 331 kts 195°
2026-05-08 02:04 60.73989 10.41778 19009 ft 330 kts 195°
2026-05-08 02:04 60.71732 10.40939 18510 ft 329 kts 195°
2026-05-08 02:04 60.69483 10.40098 17968 ft 328 kts 195°
2026-05-08 02:05 60.67250 10.39265 17467 ft 325 kts 195°
2026-05-08 02:05 60.65032 10.38441 16981 ft 323 kts 195°
2026-05-08 02:05 60.62834 10.37626 16472 ft 321 kts 194°
2026-05-08 02:05 60.60640 10.36814 16006 ft 319 kts 194°
2026-05-08 02:06 60.58466 10.36010 15530 ft 317 kts 194°
2026-05-08 02:06 60.56293 10.35209 15044 ft 316 kts 193°
2026-05-08 02:06 60.54136 10.34420 14575 ft 315 kts 193°
2026-05-08 02:06 60.51985 10.33633 14102 ft 313 kts 193°
2026-05-08 02:07 60.49850 10.32845 13585 ft 311 kts 193°
2026-05-08 02:07 60.47729 10.32061 13121 ft 308 kts 193°
2026-05-08 02:07 60.45629 10.31283 12653 ft 306 kts 193°
2026-05-08 02:07 60.43547 10.30535 12194 ft 303 kts 190°
2026-05-08 02:08 60.41448 10.30150 11792 ft 300 kts 187°
2026-05-08 02:08 60.39387 10.29803 11392 ft 296 kts 187°
2026-05-08 02:08 60.37346 10.29457 11006 ft 292 kts 187°
2026-05-08 02:08 60.35328 10.29109 10606 ft 289 kts 187°
2026-05-08 02:09 60.33336 10.28763 10230 ft 286 kts 187°
2026-05-08 02:09 60.32671 10.28647 10102 ft 285 kts 187°
2026-05-08 02:10 60.26072 10.27501 9214 ft 259 kts 186°
2026-05-08 02:10 60.24328 10.27205 9216 ft 245 kts 186°
2026-05-08 02:10 60.22675 10.26927 9218 ft 231 kts 186°
2026-05-08 02:10 60.21100 10.26662 9219 ft 217 kts 186°
2026-05-08 02:11 60.19647 10.26418 9220 ft 202 kts 187°
2026-05-08 02:11 60.18294 10.26192 9216 ft 191 kts 187°
2026-05-08 02:11 60.16970 10.25969 9221 ft 190 kts 187°
2026-05-08 02:11 60.15656 10.25745 9219 ft 190 kts 187°
2026-05-08 02:12 60.14337 10.25515 9222 ft 190 kts 187°
2026-05-08 02:12 60.13026 10.25186 9221 ft 189 kts 195°
2026-05-08 02:12 60.11782 10.24384 9223 ft 188 kts 201°
2026-05-08 02:12 60.10548 10.23488 9223 ft 189 kts 201°
2026-05-08 02:13 60.09314 10.22602 9214 ft 189 kts 201°
2026-05-08 02:13 60.08079 10.21717 9222 ft 189 kts 201°
2026-05-08 02:13 60.06844 10.20831 9218 ft 189 kts 201°
2026-05-08 02:13 60.05609 10.19945 9222 ft 188 kts 201°
2026-05-08 02:14 60.04375 10.19059 9222 ft 188 kts 201°
2026-05-08 02:14 60.03134 10.18218 9225 ft 189 kts 195°
2026-05-08 02:14 60.01832 10.17856 9222 ft 190 kts 182°
2026-05-08 02:14 60.00512 10.17880 9221 ft 190 kts 181°
2026-05-08 02:15 59.99186 10.17905 9224 ft 190 kts 181°
2026-05-08 02:15 59.97868 10.17931 9223 ft 189 kts 181°
2026-05-08 02:15 59.96552 10.17956 9222 ft 189 kts 181°
2026-05-08 02:15 59.95238 10.17984 9223 ft 189 kts 181°
2026-05-08 02:16 59.93925 10.18010 9220 ft 189 kts 181°
2026-05-08 02:16 59.92610 10.18035 9219 ft 189 kts 180°
2026-05-08 02:16 59.91305 10.18409 9221 ft 191 kts 167°
2026-05-08 02:16 59.90050 10.19295 9225 ft 192 kts 162°
2026-05-08 02:17 59.88801 10.20230 9221 ft 192 kts 162°
2026-05-08 02:17 59.87551 10.21159 9220 ft 192 kts 162°
2026-05-08 02:17 59.86300 10.22086 9224 ft 192 kts 162°
2026-05-08 02:17 59.85051 10.23012 9225 ft 192 kts 162°
2026-05-08 02:18 59.83798 10.23941 9221 ft 192 kts 162°
2026-05-08 02:18 59.82549 10.24870 9221 ft 192 kts 162°
2026-05-08 02:18 59.81331 10.25975 9222 ft 194 kts 152°
2026-05-08 02:18 59.80239 10.27561 9218 ft 195 kts 145°
2026-05-08 02:19 59.79172 10.29222 9218 ft 195 kts 145°
2026-05-08 02:19 59.78102 10.30881 9216 ft 195 kts 145°
2026-05-08 02:19 59.77169 10.32857 9212 ft 199 kts 124°
2026-05-08 02:19 59.76689 10.35444 9221 ft 204 kts 100°
2026-05-08 02:20 59.76763 10.38271 9119 ft 209 kts 76°
2026-05-08 02:20 59.77416 10.40824 8882 ft 208 kts 50°
2026-05-08 02:20 59.78439 10.42856 8709 ft 208 kts 45°
2026-05-08 02:20 59.79477 10.44866 8525 ft 208 kts 45°
2026-05-08 02:21 59.80507 10.46878 8344 ft 207 kts 45°
2026-05-08 02:21 59.81532 10.48885 8163 ft 207 kts 46°
2026-05-08 02:21 59.82552 10.50889 7985 ft 206 kts 46°
2026-05-08 02:21 59.83570 10.52893 7784 ft 205 kts 46°
2026-05-08 02:22 59.84583 10.54890 7630 ft 205 kts 46°
2026-05-08 02:22 59.85599 10.56897 7330 ft 207 kts 47°
2026-05-08 02:22 59.86618 10.58910 7103 ft 205 kts 47°
2026-05-08 02:22 59.87623 10.60898 6912 ft 202 kts 46°
2026-05-08 02:23 59.88613 10.62856 6720 ft 199 kts 47°
2026-05-08 02:23 59.89583 10.64779 6563 ft 195 kts 47°
2026-05-08 02:23 59.90535 10.66667 6387 ft 192 kts 47°
2026-05-08 02:23 59.91477 10.68535 6218 ft 190 kts 47°
2026-05-08 02:24 59.92412 10.70392 6055 ft 189 kts 47°
2026-05-08 02:24 59.93340 10.72236 5890 ft 189 kts 47°
2026-05-08 02:24 59.94270 10.74083 5725 ft 188 kts 47°
2026-05-08 02:24 59.95194 10.75918 5561 ft 187 kts 47°
2026-05-08 02:25 59.96118 10.77753 5393 ft 187 kts 47°
2026-05-08 02:25 59.96961 10.79742 5224 ft 184 kts 60°
2026-05-08 02:25 59.97538 10.81959 5069 ft 181 kts 73°
2026-05-08 02:25 59.97883 10.84388 4917 ft 179 kts 81°
2026-05-08 02:26 59.98175 10.86765 4760 ft 178 kts 80°
2026-05-08 02:26 59.98476 10.89198 4603 ft 178 kts 80°
2026-05-08 02:26 59.98771 10.91584 4451 ft 177 kts 80°
2026-05-08 02:26 59.99113 10.93949 4299 ft 179 kts 69°
2026-05-08 02:27 59.99832 10.95989 4127 ft 182 kts 45°
2026-05-08 02:27 60.00910 10.97298 3977 ft 184 kts 19°
2026-05-08 02:27 60.02144 10.98011 3815 ft 184 kts 17°
2026-05-08 02:27 60.03375 10.98711 3658 ft 184 kts 17°
2026-05-08 02:28 60.04603 10.99410 3543 ft 184 kts 17°
2026-05-08 02:28 60.05828 11.00109 3363 ft 180 kts 17°
2026-05-08 02:28 60.06996 11.00775 3096 ft 168 kts 17°
2026-05-08 02:28 60.08078 11.01393 2871 ft 156 kts 17°
2026-05-08 02:29 60.09084 11.01969 2666 ft 145 kts 17°
2026-05-08 02:29 60.10024 11.02507 2476 ft 139 kts 17°
2026-05-08 02:29 60.10953 11.03040 2282 ft 136 kts 17°
2026-05-08 02:29 60.11857 11.03558 2100 ft 134 kts 17°
2026-05-08 02:30 60.12750 11.04075 1908 ft 133 kts 17°
2026-05-08 02:30 60.13638 11.04592 1709 ft 132 kts 17°
2026-05-08 02:30 60.14515 11.05087 1496 ft 129 kts 16°
2026-05-08 02:30 60.15369 11.05574 1332 ft 126 kts 16°
2026-05-08 02:31 60.16202 11.06060 1137 ft 123 kts 16°
2026-05-08 02:31 60.17021 11.06533 1020 ft 123 kts 16°
2026-05-08 02:31 60.17845 11.06997 837 ft 123 kts 15°
2026-05-08 02:31 60.18664 11.07471 670 ft 122 kts 16°
2026-05-08 02:32 60.19364 11.07873 672 ft 83 kts 16°
2026-05-08 02:32 60.19802 11.08124 672 ft 50 kts 16°
2026-05-08 02:32 60.20099 11.08297 676 ft 41 kts 16°
2026-05-08 02:32 60.20395 11.08466 678 ft 47 kts 15°
2026-05-08 02:33 60.20658 11.08631 678 ft 21 kts 39°
2026-05-08 02:33 60.20666 11.08926 680 ft 22 kts 106°
2026-05-08 02:33 60.20603 11.09142 683 ft 16 kts 172°
2026-05-08 02:33 60.20481 11.09100 682 ft 15 kts 156°
2026-05-08 02:34 60.20441 11.09230 679 ft 13 kts 136°
2026-05-08 02:34 60.20354 11.09207 680 ft 17 kts 198°
2026-05-08 02:34 60.20289 11.09056 680 ft 9 kts 284°
2026-05-08 02:34 60.20254 11.08945 682 ft 13 kts 208°
2026-05-08 02:35 60.20182 11.09055 678 ft 17 kts 102°
2026-05-08 02:35 60.20148 11.09305 681 ft 22 kts 104°
2026-05-08 02:35 60.20105 11.09597 683 ft 21 kts 107°
2026-05-08 02:35 60.20052 11.09800 684 ft 16 kts 165°
2026-05-08 02:36 60.19947 11.09890 683 ft 19 kts 174°
2026-05-08 02:36 60.19825 11.09861 685 ft 13 kts 146°
2026-05-08 02:36 60.19804 11.09981 685 ft 11 kts 105°
2026-05-08 02:36 60.19796 11.10040 685 ft 0 kts 106°